K7LWV Weather Reports


time (UTC)temp
F
wind
direction
speed
knots
gust
knots
rain 1hr
in
rain 24hr
in
rain mn
in
humidity
%
barometer
mb
20260505171557 57 103 0.0 1.7 0.00 0.00 0.00 30 1016.6
20260505170059 56 89 0.0 2.6 0.00 0.00 0.00 21 1016.5
20260505164603 56 120 0.0 1.7 0.00 0.00 0.00 29 1016.6
20260505163004 56 141 0.0 0.9 0.00 0.00 0.00 30 1016.5
20260505161507 55 225 0.0 0.9 0.00 0.00 0.00 22 1016.4
20260505153027 54 201 0.0 0.9 0.00 0.00 0.00 1 1016.3
20260505151538 53 212 0.0 1.7 0.00 0.00 0.00 1 1016.3
20260505130103 49 240 0.0 0.0 0.00 0.00 0.00 1 1015.4
20260505124506 49 240 0.0 0.0 0.00 0.00 0.00 1 1015.5
20260505123007 48 240 0.0 0.0 0.00 0.00 0.00 1 1015.3
20260505121510 48 240 0.0 0.0 0.00 0.00 0.00 1 1015.3
20260505120016 48 240 0.0 0.0 0.00 0.00 0.00 1 1015.3
20260505114518 48 240 0.0 0.0 0.00 0.00 0.00 1 1015.3
20260505113034 49 240 0.0 0.0 0.00 0.00 0.00 1 1015.2
20260505111539 48 240 0.0 0.0 0.00 0.00 0.00 1 1015.2
20260505101543 47 101 0.0 0.0 0.00 0.00 0.00 1 1014.6
20260505100044 47 100 0.0 0.0 0.00 0.00 0.00 1 1014.7
20260505094558 48 101 0.0 0.0 0.00 0.00 0.00 1 1014.7
20260505093055 47 100 0.0 0.0 0.00 0.00 0.00 1 1014.6
20260505091602 48 225 0.0 0.0 0.00 0.00 0.00 1 1014.5
20260505084607 48 225 0.0 0.0 0.00 0.00 0.00 1 1014.4
20260505083005 49 225 0.0 0.0 0.00 0.00 0.00 1 1014.4
20260505081507 49 225 0.0 0.0 0.00 0.00 0.00 1 1014.3
20260505080022 49 225 0.0 0.0 0.00 0.00 0.00 1 1014.1
20260505074515 49 225 0.0 0.0 0.00 0.00 0.00 1 1014.1
20260505073019 50 225 0.0 0.0 0.00 0.00 0.00 1 1013.9
20260505071523 50 225 0.0 0.0 0.00 0.00 0.00 1 1013.8
20260505070028 51 225 0.0 0.0 0.00 0.00 0.00 1 1013.8
20260505064533 51 225 0.0 0.0 0.00 0.00 0.00 1 1013.6
20260505063035 51 225 0.0 0.0 0.00 0.00 0.00 1 1013.6
20260505061603 52 225 0.0 0.0 0.00 0.00 0.00 1 1013.6
20260505060050 52 225 0.0 0.0 0.00 0.00 0.00 1 1013.6
20260505054549 52 225 0.0 0.0 0.00 0.00 0.00 1 1013.5
20260505053050 53 153 0.0 0.0 0.00 0.00 0.00 3 1013.5
20260505051554 53 153 0.0 0.0 0.00 0.00 0.00 11 1013.4
20260505041505 56 235 0.0 0.0 0.00 0.00 0.00 37 1012.6
20260505040019 57 342 0.0 0.0 0.00 0.00 0.00 46 1012.2
20260505034513 58 345 0.0 0.0 0.00 0.00 0.00 53 1011.9
20260505033017 60 345 0.0 1.7 0.00 0.00 0.00 60 1011.9
20260505031521 61 345 0.0 0.9 0.00 0.00 0.00 63 1011.6
20260505030024 62 345 0.0 0.9 0.00 0.00 0.00 64 1011.4
20260505024528 63 345 0.0 0.0 0.00 0.00 0.00 65 1011.2
20260505023032 64 344 0.0 1.7 0.00 0.00 0.00 65 1011.0
20260505021537 65 16 0.9 4.3 0.00 0.00 0.00 64 1011.0
20260505020042 66 100 0.9 3.5 0.00 0.00 0.00 65 1011.0
20260505014544 69 96 0.0 5.2 0.00 0.00 0.00 63 1010.9
20260505013047 70 197 1.7 6.1 0.00 0.00 0.00 62 1010.9
20260505011551 70 122 0.0 4.3 0.00 0.00 0.00 62 1011.1
20260505010104 70 200 2.6 7.0 0.00 0.00 0.00 61 1011.1
20260505004601 71 214 0.9 7.0 0.00 0.00 0.00 60 1011.1
20260505003102 72 160 1.7 6.1 0.00 0.00 0.00 60 1011.1
20260505001503 72 134 1.7 4.3 0.00 0.00 0.00 59 1011.2
20260505000006 72 233 0.0 4.3 0.00 0.00 0.00 59 1011.3
20260504234511 71 176 2.6 7.0 0.00 0.00 0.00 60 1011.3
20260504233014 71 250 0.9 8.7 0.00 0.00 0.00 60 1011.5
20260504231517 71 228 3.5 9.6 0.00 0.00 0.00 60 1011.5
20260504230021 72 217 2.6 7.8 0.00 0.00 0.00 59 1011.5
20260504224525 72 194 0.0 5.2 0.00 0.00 0.00 61 1011.6
20260504223029 70 141 3.5 9.6 0.00 0.00 0.00 61 1011.9
20260504221543 70 132 3.5 8.7 0.00 0.00 0.00 62 1011.9
20260504220055 71 94 2.6 8.7 0.00 0.00 0.00 60 1012.1
20260504214550 71 187 1.7 6.1 0.00 0.00 0.00 61 1012.3
20260504213109 70 117 0.0 7.8 0.00 0.00 0.00 62 1012.3
20260504211555 70 134 1.7 7.0 0.00 0.00 0.00 62 1012.5
20260504210104 70 132 0.0 7.8 0.00 0.00 0.00 62 1012.5
20260504204606 70 274 1.7 7.0 0.00 0.00 0.00 61 1012.8
20260504203002 70 211 0.0 5.2 0.00 0.00 0.00 61 1012.9
20260504201504 68 176 0.0 3.5 0.00 0.00 0.00 62 1012.9
20260504200009 68 131 0.0 5.2 0.00 0.00 0.00 61 1012.9
20260504194512 67 94 0.9 3.5 0.00 0.00 0.00 62 1012.9
20260504193025 68 197 2.6 5.2 0.00 0.00 0.00 62 1013.0
20260504191529 66 238 0.9 4.3 0.00 0.00 0.00 62 1013.1
20260504190034 66 225 0.0 4.3 0.00 0.00 0.00 62 1013.2
20260504184536 66 180 0.0 5.2 0.00 0.00 0.00 62 1013.3
20260504183054 65 120 1.7 4.3 0.00 0.00 0.00 61 1013.3
20260504181543 64 77 0.9 4.3 0.00 0.00 0.00 61 1013.3
20260504180122 62 125 0.0 3.5 0.00 0.00 0.00 57 1013.3
20260504174551 64 125 0.0 1.7 0.00 0.00 0.00 59 1013.4
20260504173052 61 193 0.0 2.6 0.00 0.00 0.00 52 1013.4